This is the latest recevied weather packets stored in our database for station/object KD0RII. If no packets are shown the sender has not sent any weather packets the latest 10 day(s).
| Time | Temp. | Humidity | Pressure | Rain* | Wind** | Luminosity | Snow |
|---|---|---|---|---|---|---|---|
| 1778192600 | 23.89° C | 39% | 1012.5 hPa | 0 mm | - | 210 W/m² | - |
| 1778192297 | 23.89° C | 40% | 1012.5 hPa | 0 mm | - | 315 W/m² | - |
| 1778191994 | 23.89° C | 39% | 1012.6 hPa | 0 mm | - | 466 W/m² | - |
| 1778191689 | 23.89° C | 40% | 1012.4 hPa | 0 mm | - | 512 W/m² | - |
| 1778191388 | 23.89° C | 43% | 1012.3 hPa | 0 mm | - | 508 W/m² | - |
| 1778191084 | 23.89° C | 38% | 1012.7 hPa | 0 mm | - | 536 W/m² | - |
| 1778190781 | 23.89° C | 39% | 1012.6 hPa | 0 mm | - | 541 W/m² | - |
| 1778190478 | 23.89° C | 42% | 1012.6 hPa | 0 mm | - | 555 W/m² | - |
| 1778190176 | 23.33° C | 39% | 1012.9 hPa | 0 mm | - | 584 W/m² | - |
| 1778189870 | 23.89° C | 40% | 1012.7 hPa | 0 mm | - | 555 W/m² | - |
| 1778189568 | 23.33° C | 40% | 1013 hPa | 0 mm | - | 607 W/m² | - |
| 1778189264 | 23.33° C | 38% | 1013.1 hPa | 0 mm | - | 613 W/m² | - |
| 1778188961 | 23.33° C | 44% | 1013.1 hPa | 0 mm | - | 630 W/m² | - |
| 1778188658 | 23.33° C | 40% | 1013.1 hPa | 0 mm | - | 643 W/m² | - |
| 1778188354 | 23.33° C | 40% | 1013.1 hPa | 0 mm | - | 650 W/m² | - |
| 1778188051 | 23.33° C | 43% | 1013.2 hPa | 0 mm | - | 659 W/m² | - |
| 1778187748 | 23.33° C | 41% | 1013.2 hPa | 0 mm | - | 671 W/m² | - |
| 1778187444 | 23.89° C | 41% | 1013.3 hPa | 0 mm | - | 684 W/m² | - |
| 1778187141 | 23.89° C | 40% | 1013.3 hPa | 0 mm | - | 695 W/m² | - |
| 1778186837 | 23.33° C | 45% | 1013.5 hPa | 0 mm | - | 705 W/m² | - |
| 1778186535 | 22.78° C | 44% | 1013.7 hPa | 0 mm | - | 715 W/m² | - |
| 1778186233 | 22.78° C | 41% | 1013.9 hPa | 0 mm | - | 723 W/m² | - |
| 1778185930 | 22.22° C | 44% | 1014 hPa | 0 mm | - | 731 W/m² | - |
| 1778185626 | 22.22° C | 43% | 1014 hPa | 0 mm | - | 742 W/m² | - |
| 1778185322 | 22.22° C | 46% | 1014.4 hPa | 0 mm | - | 751 W/m² | - |
* Rain latest hour (hover to see other rain measurements)
** Current wind speed in m/s (hover to see current wind gust speed)